GW4073 Weather Reports


time (UTC)temp
C
wind
direction
speed
KPH
gust
KPH
rain 1hr
cm
rain 24hr
cm
rain mn
cm
humidity
%
barometer
mb
20260507113406 6 34 11.3 25.7 0.00 0.00 0.00 41 1016.4
20260507051058 12 50 16.1 24.1 0.00 0.00 0.00 32 1016.2
20260507050554 12 50 16.1 24.1 0.00 0.00 0.00 32 1016.2
20260507050051 12 50 16.1 24.1 0.00 0.00 0.00 32 1016.2
20260507045548 12 73 11.3 17.7 0.00 0.00 0.00 32 1016.1
20260507045045 12 67 6.4 16.1 0.00 0.00 0.00 32 1016.1
20260507044541 11 60 6.4 11.3 0.00 0.00 0.00 32 1016.2
20260507044038 11 53 6.4 12.9 0.00 0.00 0.00 34 1016.2
20260507043534 10 59 4.8 9.7 0.00 0.00 0.00 39 1016.1
20260507043032 8 63 6.4 9.7 0.00 0.00 0.00 42 1016.2
20260507042527 8 58 4.8 6.4 0.00 0.00 0.00 45 1016.3
20260507042017 8 42 4.8 6.4 0.00 0.00 0.00 45 1016.2
20260507041515 8 93 4.8 8.0 0.00 0.00 0.00 43 1016.4
20260507041011 9 72 4.8 8.0 0.00 0.00 0.00 40 1016.1
20260507040507 9 86 1.6 8.0 0.00 0.00 0.00 42 1016.1
20260507040002 9 45 6.4 9.7 0.00 0.00 0.00 41 1016.1
20260507035459 10 54 6.4 8.0 0.00 0.00 0.00 40 1015.9
20260507034951 10 103 4.8 6.4 0.00 0.00 0.00 39 1015.9
20260507034448 10 105 6.4 9.7 0.00 0.00 0.00 38 1015.8
20260507033946 10 64 3.2 6.4 0.00 0.00 0.00 38 1015.6
20260507033444 10 87 4.8 6.4 0.00 0.00 0.00 38 1015.5
20260507032941 10 73 3.2 8.0 0.00 0.00 0.00 39 1015.5
20260507032437 10 84 4.8 6.4 0.00 0.00 0.00 41 1015.4
20260507031933 10 80 3.2 3.2 0.00 0.00 0.00 41 1015.2
20260507031430 11 68 3.2 6.4 0.00 0.00 0.00 38 1015.1
20260507030927 11 38 3.2 8.0 0.00 0.00 0.00 35 1015.1
20260507030424 12 46 4.8 6.4 0.00 0.00 0.00 34 1015.0
20260507025921 12 54 6.4 9.7 0.00 0.00 0.00 33 1014.9
20260507025418 12 52 3.2 4.8 0.00 0.00 0.00 31 1014.9
20260507024916 13 56 1.6 3.2 0.00 0.00 0.00 30 1014.8
20260507024413 15 321 3.2 8.0 0.00 0.00 0.00 25 1014.5
20260507023908 15 336 4.8 6.4 0.00 0.00 0.00 24 1014.5
20260507023406 13 307 3.2 3.2 0.00 0.00 0.00 32 1014.4
20260507022903 14 290 0.0 3.2 0.00 0.00 0.00 29 1014.4
20260507022400 15 31 6.4 8.0 0.00 0.00 0.00 24 1014.2
20260507021856 15 344 1.6 4.8 0.00 0.00 0.00 24 1014.4
20260507021351 16 15 3.2 4.8 0.00 0.00 0.00 24 1014.2
20260507020849 16 350 3.2 8.0 0.00 0.00 0.00 23 1014.4
20260507020345 16 341 0.0 4.8 0.00 0.00 0.00 25 1014.1
20260507015842 16 49 3.2 8.0 0.00 0.00 0.00 23 1014.2
20260507015340 16 333 3.2 4.8 0.00 0.00 0.00 24 1014.1
20260507014837 17 8 1.6 12.9 0.00 0.00 0.00 23 1013.9
20260507014333 17 11 4.8 12.9 0.00 0.00 0.00 22 1013.9
20260507013830 17 341 3.2 6.4 0.00 0.00 0.00 22 1013.7
20260507013327 17 308 4.8 4.8 0.00 0.00 0.00 22 1013.7
20260507012825 17 55 8.0 11.3 0.00 0.00 0.00 21 1013.8
20260507012320 17 313 1.6 4.8 0.00 0.00 0.00 24 1013.9
20260507011818 18 19 1.6 4.8 0.00 0.00 0.00 22 1013.6
20260507011315 18 354 1.6 8.0 0.00 0.00 0.00 21 1013.6
20260507010814 18 273 3.2 4.8 0.00 0.00 0.00 22 1013.6
20260507010309 18 31 9.7 16.1 0.00 0.00 0.00 20 1013.8
20260507005802 18 76 12.9 20.9 0.00 0.00 0.00 21 1013.5
20260507005258 18 56 9.7 12.9 0.00 0.00 0.00 21 1013.6
20260507004755 18 13 3.2 20.9 0.00 0.00 0.00 22 1013.6
20260507004253 18 23 6.4 9.7 0.00 0.00 0.00 21 1013.4
20260507003749 19 58 12.9 27.4 0.00 0.00 0.00 20 1013.6
20260507003244 19 56 11.3 19.3 0.00 0.00 0.00 21 1013.7
20260507002740 19 80 11.3 22.5 0.00 0.00 0.00 20 1013.4
20260507002236 19 56 9.7 22.5 0.00 0.00 0.00 21 1013.4
20260507001733 19 33 12.9 27.4 0.00 0.00 0.00 20 1013.0
20260507001230 20 59 11.3 16.1 0.00 0.00 0.00 20 1013.1
20260507000727 21 318 3.2 6.4 0.00 0.00 0.00 21 1012.9
20260507000222 20 67 6.4 16.1 0.00 0.00 0.00 20 1012.9
20260506235720 20 36 14.5 30.6 0.00 0.00 0.00 22 1012.9
20260506235215 20 309 3.2 11.3 0.00 0.00 0.00 24 1012.5
20260506234712 20 57 6.4 12.9 0.00 0.00 0.00 22 1012.8
20260506234210 20 58 9.7 9.7 0.00 0.00 0.00 21 1012.5
20260506233707 20 31 11.3 16.1 0.00 0.00 0.00 21 1012.5
20260506233203 19 114 12.9 19.3 0.00 0.00 0.00 21 1012.8
20260506232700 20 46 11.3 19.3 0.00 0.00 0.00 22 1012.8
20260506232155 20 63 20.9 27.4 0.00 0.00 0.00 22 1012.7
20260506231652 19 43 6.4 35.4 0.00 0.00 0.00 21 1012.8
20260506231151 20 56 14.5 29.0 0.00 0.00 0.00 21 1012.9
20260506230647 20 30 12.9 17.7 0.00 0.00 0.00 21 1012.9
20260506230144 19 39 4.8 32.2 0.00 0.00 0.00 21 1012.7
20260506225640 20 47 8.0 29.0 0.00 0.00 0.00 22 1012.5
20260506225137 20 47 22.5 30.6 0.00 0.00 0.00 21 1012.8
20260506224634 20 35 8.0 24.1 0.00 0.00 0.00 24 1012.7
20260506224130 20 57 16.1 24.1 0.00 0.00 0.00 23 1012.5
20260506223627 20 350 9.7 17.7 0.00 0.00 0.00 23 1012.8
20260506223123 20 34 8.0 20.9 0.00 0.00 0.00 22 1012.9
20260506222620 21 336 8.0 19.3 0.00 0.00 0.00 23 1012.8
20260506222116 20 343 3.2 24.1 0.00 0.00 0.00 23 1012.9
20260506221614 22 327 6.4 8.0 0.00 0.00 0.00 22 1012.8
20260506221112 21 28 4.8 9.7 0.00 0.00 0.00 24 1012.9
20260506220608 20 55 9.7 12.9 0.00 0.00 0.00 23 1012.9
20260506215600 21 44 9.7 9.7 0.00 0.00 0.00 23 1012.9
20260506215056 20 109 6.4 12.9 0.00 0.00 0.00 24 1013.0
20260506214553 21 25 4.8 11.3 0.00 0.00 0.00 24 1013.0
20260506214050 20 289 6.4 16.1 0.00 0.00 0.00 25 1012.9
20260506213548 20 37 16.1 19.3 0.00 0.00 0.00 25 1012.8
20260506213045 20 39 6.4 11.3 0.00 0.00 0.00 25 1012.8
20260506212542 20 40 16.1 20.9 0.00 0.00 0.00 26 1012.8
20260506212037 20 62 14.5 17.7 0.00 0.00 0.00 26 1013.1
20260506211533 20 41 9.7 22.5 0.00 0.00 0.00 25 1013.1
20260506211030 20 43 20.9 25.7 0.00 0.00 0.00 24 1013.1
20260506210527 20 61 9.7 20.9 0.00 0.00 0.00 26 1012.9
20260506210024 20 302 8.0 9.7 0.00 0.00 0.00 24 1012.9
20260506205520 20 50 20.9 20.9 0.00 0.00 0.00 26 1012.8
20260506205015 20 77 11.3 22.5 0.00 0.00 0.00 26 1012.8
20260506204514 20 300 4.8 25.7 0.00 0.00 0.00 25 1012.8
20260506204010 20 311 6.4 14.5 0.00 0.00 0.00 25 1012.8
20260506203509 20 95 9.7 14.5 0.00 0.00 0.00 27 1012.8
20260506203004 20 324 4.8 9.7 0.00 0.00 0.00 26 1012.8
20260506202502 20 330 8.0 19.3 0.00 0.00 0.00 28 1012.4
20260506201957 19 45 8.0 27.4 0.00 0.00 0.00 27 1012.8
20260506201455 19 45 14.5 27.4 0.00 0.00 0.00 28 1012.7
20260506200946 20 40 27.4 32.2 0.00 0.00 0.00 27 1012.5
20260506200442 20 13 8.0 16.1 0.00 0.00 0.00 27 1012.8
20260506195939 20 302 6.4 6.4 0.00 0.00 0.00 30 1012.4
20260506195436 19 5 3.2 17.7 0.00 0.00 0.00 28 1012.7
20260506194932 18 109 11.3 32.2 0.00 0.00 0.00 26 1012.7
20260506194430 20 38 11.3 20.9 0.00 0.00 0.00 27 1012.7
20260506193926 20 262 6.4 9.7 0.00 0.00 0.00 30 1012.8
20260506193424 20 28 9.7 14.5 0.00 0.00 0.00 29 1012.4
20260506192920 18 351 6.4 25.7 0.00 0.00 0.00 28 1012.7
20260506192417 20 61 16.1 19.3 0.00 0.00 0.00 27 1012.7
20260506191914 20 4 4.8 6.4 0.00 0.00 0.00 27 1012.7
20260506191410 18 310 6.4 11.3 0.00 0.00 0.00 29 1012.4
20260506190908 18 349 3.2 8.0 0.00 0.00 0.00 31 1012.5
20260506190403 19 96 11.3 12.9 0.00 0.00 0.00 29 1012.7
20260506185900 18 286 3.2 8.0 0.00 0.00 0.00 32 1012.7
20260506185357 18 37 9.7 20.9 0.00 0.00 0.00 30 1012.7
20260506184855 17 75 4.8 16.1 0.00 0.00 0.00 34 1012.9
20260506184351 19 37 6.4 6.4 0.00 0.00 0.00 34 1012.5
20260506183849 19 256 3.2 6.4 0.00 0.00 0.00 35 1012.5
20260506183344 20 180 6.4 6.4 0.00 0.00 0.00 34 1012.7
20260506182841 18 181 3.2 6.4 0.00 0.00 0.00 34 1013.0
20260506182338 18 182 11.3 16.1 0.00 0.00 0.00 34 1012.8
20260506181831 18 261 3.2 9.7 0.00 0.00 0.00 37 1012.5
20260506181329 18 70 3.2 6.4 0.00 0.00 0.00 35 1013.0
20260506180825 17 322 3.2 6.4 0.00 0.00 0.00 38 1012.7
20260506180321 18 160 6.4 9.7 0.00 0.00 0.00 36 1012.8
20260506175817 18 203 0.0 9.7 0.00 0.00 0.00 35 1012.8
20260506175314 17 275 3.2 3.2 0.00 0.00 0.00 39 1012.7
20260506174812 17 156 3.2 8.0 0.00 0.00 0.00 37 1012.8
20260506174309 17 229 6.4 8.0 0.00 0.00 0.00 37 1012.8
20260506173806 17 193 8.0 9.7 0.00 0.00 0.00 37 1012.7
20260506173303 16 341 1.6 12.9 0.00 0.00 0.00 38 1012.5
20260506172800 16 151 3.2 6.4 0.00 0.00 0.00 41 1012.9
20260506172256 15 209 6.4 9.7 0.00 0.00 0.00 41 1012.4
20260506171754 15 178 8.0 8.0 0.00 0.00 0.00 40 1012.8
20260506171251 15 145 12.9 20.9 0.00 0.00 0.00 40 1012.5
20260506170749 16 263 3.2 8.0 0.00 0.00 0.00 42 1012.3
20260506170245 16 252 0.0 11.3 0.00 0.00 0.00 43 1012.4
20260506165743 16 249 3.2 12.9 0.00 0.00 0.00 40 1012.3
20260506165240 17 278 3.2 6.4 0.00 0.00 0.00 39 1012.3
20260506164737 16 54 3.2 3.2 0.00 0.00 0.00 43 1012.4
20260506164234 15 89 0.0 9.7 0.00 0.00 0.00 39 1012.3
20260506163731 14 72 4.8 12.9 0.00 0.00 0.00 42 1012.2
20260506163225 14 147 0.0 3.2 0.00 0.00 0.00 43 1012.3
20260506162722 13 268 3.2 3.2 0.00 0.00 0.00 46 1012.3
20260506162220 13 115 3.2 6.4 0.00 0.00 0.00 45 1012.2
20260506161717 12 185 3.2 3.2 0.00 0.00 0.00 47 1011.9
20260506161214 12 55 0.0 1.6 0.00 0.00 0.00 49 1012.1
20260506160712 11 326 3.2 4.8 0.00 0.00 0.00 49 1011.9
20260506160208 12 283 0.0 8.0 0.00 0.00 0.00 49 1011.8
20260506155707 11 346 3.2 4.8 0.00 0.00 0.00 50 1012.1
20260506155204 12 124 4.8 8.0 0.00 0.00 0.00 47 1011.8
20260506153306 11 319 1.6 4.8 0.00 0.00 0.00 46 1011.9
20260506152803 12 222 3.2 9.7 0.00 0.00 0.00 48 1011.9
20260506152300 12 177 4.8 9.7 0.00 0.00 0.00 45 1012.2
20260506151759 12 165 1.6 12.9 0.00 0.00 0.00 44 1012.2
20260506151255 13 352 1.6 6.4 0.00 0.00 0.00 47 1011.9
20260506150751 13 59 3.2 6.4 0.00 0.00 0.00 45 1012.2
20260506150249 12 164 0.0 4.8 0.00 0.00 0.00 50 1012.3
20260506145746 11 222 4.8 8.0 0.00 0.00 0.00 48 1012.3
20260506145242 11 206 0.0 3.2 0.00 0.00 0.00 52 1012.2
20260506144740 10 6 0.0 3.2 0.00 0.00 0.00 53 1012.2
20260506144237 10 315 0.0 3.2 0.00 0.00 0.00 54 1012.2
20260506143734 10 116 0.0 3.2 0.00 0.00 0.00 50 1012.1
20260506143231 10 55 0.0 3.2 0.00 0.00 0.00 53 1011.9
20260506142730 9 17 0.0 4.8 0.00 0.00 0.00 53 1012.4
20260506142228 8 57 3.2 6.4 0.00 0.00 0.00 56 1012.1
20260506141725 7 55 4.8 6.4 0.00 0.00 0.00 59 1012.1
20260506141224 7 81 4.8 8.0 0.00 0.00 0.00 60 1011.7
20260506140721 6 49 8.0 9.7 0.00 0.00 0.00 62 1012.1
20260506140218 6 42 6.4 8.0 0.00 0.00 0.00 62 1011.8
20260506135714 5 47 8.0 11.3 0.00 0.00 0.00 64 1011.6
20260506135211 5 66 6.4 9.7 0.00 0.00 0.00 66 1011.5
20260506134708 5 72 6.4 9.7 0.00 0.00 0.00 67 1011.7
20260506134204 4 67 8.0 12.9 0.00 0.00 0.00 69 1011.4
20260506133701 3 48 9.7 16.1 0.00 0.00 0.00 71 1011.1
20260506133157 2 63 8.0 9.7 0.00 0.00 0.00 72 1011.2
20260506132655 2 62 6.4 9.7 0.00 0.00 0.00 72 1010.9
20260506132152 2 82 6.4 9.7 0.00 0.00 0.00 73 1011.0
20260506131649 2 117 9.7 12.9 0.00 0.00 0.00 73 1010.9
20260506131145 2 60 4.8 9.7 0.00 0.00 0.00 72 1010.8
20260506130642 3 70 8.0 11.3 0.00 0.00 0.00 71 1011.0
20260506130139 3 60 6.4 14.5 0.00 0.00 0.00 71 1010.5
20260506125637 2 56 8.0 11.3 0.00 0.00 0.00 72 1010.8
20260506125134 2 59 14.5 16.1 0.00 0.00 0.00 72 1010.8
20260506124632 3 70 9.7 14.5 0.00 0.00 0.00 71 1010.7
20260506124130 3 89 6.4 14.5 0.00 0.00 0.00 71 1010.4
20260506123628 3 111 6.4 12.9 0.00 0.00 0.00 70 1010.5
20260506123127 3 59 8.0 14.5 0.00 0.00 0.00 69 1010.4
20260506122623 3 109 9.7 17.7 0.00 0.00 0.00 70 1010.4
20260506122120 3 74 8.0 12.9 0.00 0.00 0.00 71 1010.3
20260506121618 3 70 6.4 12.9 0.00 0.00 0.00 71 1010.2
20260506121114 3 77 12.9 19.3 0.00 0.00 0.00 71 1010.1
20260506120613 3 80 3.2 17.7 0.00 0.00 0.00 71 1010.2
20260506120110 2 112 4.8 12.9 0.00 0.00 0.00 73 1009.8
20260506115608 2 37 9.7 11.3 0.00 0.00 0.00 73 1010.1
20260506115106 2 51 8.0 12.9 0.00 0.00 0.00 74 1010.1
20260506114603 2 73 8.0 14.5 0.00 0.00 0.00 76 1009.9
20260506114101 2 121 6.4 8.0 0.00 0.00 0.00 76 1009.5
20260506113558 2 94 6.4 9.7 0.00 0.00 0.00 77 1009.6